Wind_Speed
7 6 5 6 6 7 7 4 3 3 9 14 15 15 12 11 14 14 13 16 15 14 18 18 14 16 18 18 19 19 19 20 18 17 16 15 15 15 16 18 20 21 23 24 24 25 25 25 25 24 24 25 29 33 33 30 29 30 32 34 35 35 34 33 31 30 29 29 30 29 28 27 25 24 24 24 23 23 22 22 22 22 21 21 20 20 19
4 3 3 4 5 6 10 9 6 4 4 8 10 12 14 13 14 13 12 14 13 14 18 17 12 16 19 18 19 18 17 18 17 17 17 16 16 16 17 18 19 20 20 20 20 21 21 22 21 21 22 22 25 30 33 34 32 30 30 32 34 35 35 34 33 33 32 30 30 30 30 29 27 26 26 25 25 25 24 24 23 23 23 22 22 21 20
8 4 1 2 3 3 8 12 10 7 4 4 9 13 15 11 10 11 12 14 14 15 19 16 13 17 19 18 18 18 17 17 17 16 17 17 17 17 18 18 18 18 19 19 19 20 20 20 20 20 20 21 22 25 27 29 28 27 28 29 30 32 33 35 36 36 34 33 32 30 29 29 29 28 27 26 27 27 26 26 25 24 24 23 23 22 22
11 7 4 3 5 3 2 11 13 11 9 3 5 11 14 12 10 10 10 10 13 17 19 17 15 17 19 19 18 18 17 17 17 16 17 17 18 18 18 18 17 18 18 19 20 20 21 21 20 20 19 19 20 20 21 21 20 22 25 27 28 29 30 34 37 37 36 36 34 31 30 29 29 28 28 28 28 28 27 27 26 25 25 24 24 24 23
11 10 9 6 8 6 4 7 13 13 11 8 3 3 9 12 12 10 7 7 10 16 17 15 15 17 17 18 18 17 17 17 16 16 16 16 17 17 17 16 17 17 18 18 19 20 20 21 20 20 20 19 19 19 19 18 17 19 22 23 25 27 28 31 34 36 36 35 33 31 31 31 30 28 28 28 28 28 28 28 27 27 26 25 25 25 25
9 14 15 10 9 5 6 5 7 12 13 10 9 7 2 8 12 13 14 13 14 17 16 14 19 19 14 15 18 17 16 16 15 13 14 15 15 14 15 16 18 18 18 19 19 20 20 20 21 21 20 20 20 19 19 18 17 18 19 20 21 23 25 28 30 31 33 34 34 33 33 33 32 29 28 29 29 28 28 29 30 28 27 27 27 26 26
4 12 15 9 6 3 4 4 5 6 10 11 11 11 9 1 5 10 14 16 16 16 14 15 22 21 15 16 19 18 16 15 14 12 13 13 13 14 16 18 18 18 18 18 17 17 17 17 17 17 18 20 20 19 19 18 17 17 18 19 19 19 20 22 23 25 27 29 32 33 33 34 33 31 31 33 33 32 31 32 31 30 29 29 29 29 28
4 9 11 6 6 7 6 8 8 5 4 9 9 8 11 9 3 2 7 10 10 11 13 17 20 20 18 18 19 18 17 16 13 12 13 14 15 16 17 16 16 16 16 15 13 12 12 12 12 13 15 17 18 19 18 16 16 16 16 18 18 18 18 19 20 22 24 26 29 31 32 34 35 34 35 37 37 36 35 35 33 32 31 30 30 30 30
7 8 10 7 7 9 10 12 9 6 3 3 6 7 10 12 9 3 3 8 13 15 16 17 17 16 17 17 17 17 18 18 17 15 15 16 17 18 18 17 16 16 14 12 10 10 9 9 10 12 13 14 15 15 15 14 14 14 14 15 16 15 15 17 18 20 21 23 25 28 29 31 33 35 36 36 36 36 37 38 37 34 32 32 31 31 31
11 9 8 8 6 5 7 12 12 9 8 6 1 5 7 10 10 8 5 9 16 17 15 16 16 15 15 16 16 15 15 16 18 19 18 17 18 19 18 16 14 13 11 10 9 9 9 9 9 11 13 13 13 13 13 13 13 13 14 14 13 13 13 13 13 15 18 21 22 23 25 26 27 29 30 31 34 34 35 38 40 38 36 34 32 32 34
11 11 10 9 6 3 7 13 14 11 9 9 5 1 2 7 8 8 6 6 11 15 17 20 18 14 13 15 16 14 11 11 13 14 15 16 16 16 15 14 13 11 10 10 10 9 10 11 11 11 12 13 13 13 13 12 12 12 13 14 13 12 13 12 10 12 15 18 18 18 20 21 21 22 23 23 26 29 32 37 39 39 39 38 35 34 34
10 10 9 7 4 3 8 13 15 13 10 8 7 4 1 4 4 5 5 4 6 11 17 21 17 14 15 15 13 12 11 11 11 11 12 13 13 13 13 12 11 11 11 10 9 8 9 9 11 11 11 12 13 12 12 13 12 12 12 13 12 13 14 15 14 12 12 14 15 16 17 18 18 20 20 18 18 21 24 28 32 34 37 40 38 35 31
8 9 9 6 4 4 8 10 12 14 12 10 8 5 4 3 2 3 4 5 4 4 8 11 9 8 11 12 10 9 9 10 11 10 11 13 13 12 12 12 11 11 11 11 10 9 9 9 9 10 10 11 11 11 11 12 11 11 11 11 11 13 13 14 15 14 13 13 14 15 16 17 18 19 19 18 18 18 17 19 24 28 32 37 39 36 31
4 7 8 6 3 3 6 6 8 10 9 8 6 5 7 8 4 2 2 5 4 4 5 7 7 10 12 12 10 9 9 10 11 11 11 12 13 13 13 12 12 12 11 11 12 12 12 11 10 9 10 10 10 9 10 9 9 8 8 8 9 10 11 11 11 12 13 14 14 13 13 15 18 18 17 16 17 19 20 22 24 24 24 28 33 33 31
3 6 7 5 2 1 3 4 5 6 6 7 6 5 7 9 8 7 7 6 6 6 5 6 8 12 15 15 13 11 10 10 10 10 11 12 12 12 12 12 12 12 12 12 12 12 12 12 10 10 9 9 9 9 9 9 8 8 7 7 8 8 8 9 9 10 12 14 14 14 14 14 15 16 16 16 15 18 22 25 26 26 25 25 25 24 25
3 3 3 4 3 3 4 5 5 5 5 6 7 5 4 5 7 9 10 9 9 7 5 5 8 11 13 15 13 11 9 8 8 9 10 12 12 12 11 11 11 11 12 12 12 12 12 11 11 10 10 9 9 9 10 10 9 9 8 8 7 7 8 8 7 8 9 10 10 12 13 13 12 12 14 15 15 16 18 19 19 21 23 25 25 24 21
4 3 5 6 6 5 6 6 6 6 5 5 5 5 4 3 4 7 11 10 10 10 8 5 5 7 10 12 13 12 10 8 8 7 8 10 12 12 12 12 11 12 12 12 12 12 12 12 11 11 11 10 10 11 11 11 10 10 10 9 8 7 7 7 7 8 8 7 6 7 7 8 8 8 9 10 11 13 15 15 14 15 17 21 26 28 26
3 4 5 7 6 6 6 5 5 6 5 5 5 5 6 6 4 5 9 12 11 10 11 9 6 5 7 9 10 12 12 11 9 7 7 8 9 11 13 13 13 13 13 13 12 12 12 12 12 12 12 12 11 11 12 12 12 12 11 11 10 9 8 8 8 8 8 7 6 5 5 5 5 5 6 6 7 8 9 11 12 12 13 14 18 22 25
3 2 4 5 5 5 5 5 5 5 5 5 6 6 7 8 6 5 7 11 12 9 9 10 8 8 9 9 8 10 12 12 10 9 9 9 9 11 13 14 15 15 14 13 13 13 13 13 13 13 13 13 12 12 12 12 12 13 13 13 12 12 10 9 9 9 8 8 8 7 6 6 7 6 6 6 6 6 7 8 9 9 9 10 10 11 14
3 3 5 6 5 6 6 6 7 7 7 7 7 7 7 8 9 8 8 9 10 9 8 9 8 8 9 10 8 9 9 9 9 10 12 12 12 12 13 14 14 15 15 14 14 14 14 14 13 13 13 13 13 13 13 13 13 14 14 14 14 14 13 12 12 11 11 10 10 9 8 8 8 8 8 8 8 8 8 9 9 8 8 9 9 9 10
3 5 6 6 5 6 8 8 8 8 9 9 9 9 9 9 10 11 11 11 12 11 10 9 9 7 8 7 6 7 6 5 7 10 12 13 14 14 14 15 15 15 15 15 16 16 15 14 14 13 13 13 13 13 13 14 14 14 14 15 16 16 16 15 15 14 14 14 13 12 11 11 11 10 10 10 10 10 10 10 11 10 10 10 10 11 11
4 6 8 7 5 6 9 9 9 9 9 10 10 10 11 11 11 12 13 13 14 14 13 12 10 8 9 9 8 9 9 9 10 11 11 13 15 16 16 16 16 17 17 16 16 16 15 14 14 14 14 14 14 14 14 14 15 15 15 15 16 17 17 18 18 17 17 17 17 16 15 15 14 14 13 13 13 12 12 12 12 12 12 12 12 13 13
9 11 12 10 8 10 12 11 10 11 10 10 11 11 11 11 12 13 14 15 15 16 16 15 14 12 11 10 10 11 12 13 13 13 14 15 15 15 15 15 15 16 18 19 18 17 16 15 15 14 15 15 15 15 15 15 15 16 16 17 16 17 17 18 19 20 20 20 19 19 19 19 18 18 17 17 16 16 16 16 16 15 15 15 15 16 16
11 12 12 12 11 12 13 12 12 13 13 12 13 13 12 13 13 13 14 15 16 16 17 17 16 16 14 13 13 12 13 14 14 15 16 16 16 15 15 15 16 16 18 19 19 18 17 16 16 16 16 17 16 16 16 16 16 16 17 17 18 18 18 18 18 19 20 21 22 22 22 22 22 22 22 21 20 20 20 20 20 19 19 19 19 19 19
11 11 11 11 11 12 12 12 13 13 13 14 14 14 15 15 15 15 16 16 17 18 18 18 18 17 16 16 15 15 15 16 16 17 17 17 18 17 17 18 18 18 18 18 18 18 18 18 18 18 18 18 18 18 18 17 17 17 17 17 18 18 18 19 18 18 19 20 21 22 23 23 24 24 24 24 24 23 23 23 23 23 23 23 23 23 23
9 10 10 10 10 11 11 12 13 14 14 15 15 16 16 17 17 18 18 18 19 19 19 20 20 19 19 18 17 17 18 18 19 19 19 19 20 20 19 19 19 19 19 18 18 19 20 20 20 20 20 20 19 19 18 17 16 16 16 16 17 18 18 19 19 20 20 20 20 20 21 22 23 24 25 25 25 25 25 25 25 25 25 25 25 25 25
9 10 9 9 11 11 11 12 13 14 15 15 16 17 17 17 18 19 20 20 21 22 22 23 23 22 22 22 21 20 20 20 20 20 20 21 21 21 21 20 20 20 19 18 19 21 22 21 21 21 20 19 19 18 17 16 15 15 15 15 16 17 18 19 20 20 21 21 21 21 21 21 21 22 23 24 25 25 25 26 26 26 26 27 26 26 26
9 10 10 10 11 12 13 13 14 15 16 16 17 17 17 18 19 19 20 21 21 22 23 24 25 25 25 25 24 23 22 22 22 21 21 20 21 22 23 24 24 23 22 21 21 21 21 20 20 20 19 18 18 17 17 16 15 15 14 14 15 15 17 18 19 20 20 21 21 22 22 22 22 21 22 22 23 24 24 25 26 26 27 27 27 27 27
10 10 10 11 12 13 14 15 15 16 16 16 17 17 18 18 19 20 21 22 21 22 23 23 24 26 27 27 27 26 25 24 24 23 22 22 23 24 24 24 25 25 24 22 21 20 19 19 19 19 20 20 19 19 19 18 17 17 16 16 16 16 16 17 18 19 20 20 21 22 22 23 23 22 22 22 21 22 22 23 24 25 26 27 27 28 29
10 11 11 12 13 13 14 15 15 16 16 17 18 18 19 19 20 21 22 22 22 23 24 24 24 25 27 28 29 28 28 27 26 25 25 26 26 26 25 25 26 26 25 23 21 20 20 21 22 22 22 21 21 21 21 21 20 20 19 19 18 18 17 17 18 18 19 20 20 21 22 22 23 23 23 23 22 22 22 22 22 23 24 25 26 27 28
12 12 12 13 13 14 15 16 17 18 19 20 21 22 22 23 24 24 25 25 24 24 25 25 26 26 27 28 29 30 30 31 30 29 29 29 29 29 28 28 28 27 25 24 23 23 23 24 25 25 24 24 23 23 23 22 22 22 22 22 22 21 20 20 19 19 20 20 20 21 22 23 23 23 24 24 24 24 23 23 23 23 23 24 24 24 24
12 13 13 14 14 16 17 18 19 20 21 21 23 24 25 26 27 27 28 29 28 28 27 26 26 27 28 29 29 30 31 33 33 33 34 34 34 33 33 32 32 31 30 29 28 27 27 28 29 28 27 27 26 25 24 23 23 23 24 24 24 23 23 22 22 22 22 22 22 23 23 23 24 24 24 24 25 25 25 25 25 25 24 25 25 23 22
12 13 13 15 16 17 18 19 20 21 22 23 24 25 26 26 27 28 29 30 30 30 30 29 28 28 28 28 29 29 31 32 33 35 36 36 36 36 36 36 36 35 35 35 33 32 31 32 33 32 31 30 29 27 26 25 24 24 24 24 25 25 24 24 24 24 24 24 25 25 25 25 25 25 25 25 25 26 26 26 26 26 26 27 27 25 22
13 14 15 16 17 19 20 21 22 24 26 27 27 27 26 26 26 26 26 27 28 28 28 29 30 30 30 30 29 29 29 30 32 34 35 36 37 38 38 38 38 38 38 38 37 37 36 37 37 35 34 33 32 30 28 27 26 25 24 24 24 24 25 25 25 26 26 27 27 27 27 27 27 27 27 27 28 28 27 27 27 27 27 27 27 26 24
15 16 18 19 20 21 22 24 25 27 29 29 28 27 27 26 26 26 25 25 25 25 25 25 28 30 30 30 29 29 29 29 30 32 34 35 36 38 38 39 39 40 40 40 40 39 38 38 37 37 36 35 33 31 30 29 28 27 25 25 24 24 25 26 27 28 28 28 29 28 28 28 28 28 28 29 30 30 30 30 30 29 29 28 28 27 26
17 18 20 21 22 24 25 27 28 29 29 29 28 27 27 27 28 28 28 27 27 26 26 25 26 28 29 29 28 28 28 29 29 29 31 33 34 36 37 37 38 39 40 40 40 39 37 36 34 33 33 33 33 32 32 31 30 29 28 27 26 26 26 26 27 29 30 30 29 29 29 29 28 29 29 30 30 30 31 31 32 31 31 31 30 29 29
19 20 22 23 24 26 28 29 29 29 28 28 27 27 28 28 29 30 31 31 31 31 30 28 27 28 29 29 29 29 30 31 30 30 30 31 32 33 34 35 35 36 37 38 37 35 34 33 32 30 31 31 31 32 32 32 31 31 30 29 28 28 27 27 28 29 30 30 29 30 30 30 30 30 31 31 30 30 31 31 31 31 31 32 32 32 31
20 22 23 25 26 28 29 29 28 28 27 27 27 26 27 27 28 29 30 31 32 32 32 31 29 28 29 30 30 30 31 33 34 33 32 32 32 31 32 32 33 33 33 34 33 32 31 31 30 30 31 31 30 30 31 31 30 31 31 30 29 28 27 27 27 28 29 29 29 29 30 30 30 31 32 32 31 31 31 31 31 31 31 31 31 31 31
22 23 25 26 28 28 28 27 27 26 26 26 25 25 25 26 26 27 28 28 28 29 30 30 29 29 30 31 31 30 31 32 33 33 33 32 32 31 30 30 30 30 30 30 31 30 30 29 29 30 31 31 31 31 30 30 30 31 31 30 28 27 27 27 28 28 28 28 28 28 29 30 30 31 32 32 32 32 31 31 30 30 30 30 30 30 30
23 24 26 27 27 27 27 26 25 24 24 24 25 24 24 24 25 26 26 26 26 26 26 27 28 29 30 30 30 30 31 31 32 33 33 32 31 30 30 29 29 28 28 28 29 29 29 29 29 30 30 31 31 31 30 29 29 28 27 26 25 26 26 28 29 29 29 29 28 28 28 28 29 30 31 32 32 31 30 30 30 30 29 29 28 28 28
23 24 25 26 26 26 26 24 22 22 22 23 24 24 24 24 25 25 25 25 25 25 25 26 27 29 29 28 29 29 30 31 32 33 34 33 32 30 29 29 28 27 26 27 28 28 28 28 29 29 30 30 30 30 29 27 26 25 24 25 25 26 27 28 29 30 30 31 30 30 29 29 29 29 30 31 31 30 30 29 29 29 28 28 28 27 27
23 23 24 24 25 24 23 22 21 20 21 22 23 23 24 24 24 25 25 25 26 26 25 26 27 29 28 27 26 26 28 30 32 33 33 33 32 30 30 30 29 27 26 27 27 26 26 27 28 28 29 28 28 27 26 25 24 25 26 26 26 26 27 28 29 30 30 31 31 30 29 29 28 28 28 29 29 29 29 29 29 28 28 28 27 27 27
22 22 23 23 23 22 21 21 20 21 21 22 22 22 23 23 23 24 24 25 25 25 25 24 25 26 26 26 25 26 27 29 30 31 31 33 33 32 32 32 30 28 26 26 26 26 26 26 27 27 27 26 24 23 24 24 25 25 25 24 24 24 26 27 28 28 28 28 28 29 29 28 28 27 27 27 28 28 28 28 28 28 28 28 28 27 27
21 21 21 21 20 20 20 20 20 21 21 21 21 21 21 21 22 23 23 23 24 25 24 23 24 24 24 24 25 26 28 29 29 29 29 31 32 32 32 32 30 28 26 25 24 24 25 25 26 26 25 24 23 22 23 23 23 23 23 23 23 24 25 26 26 26 26 26 26 26 27 27 27 26 26 26 27 27 27 28 28 28 27 27 27 27 27
19 19 19 18 18 18 19 19 20 20 21 20 20 20 20 20 20 20 20 21 22 23 23 24 25 25 24 24 24 25 27 28 27 27 28 30 31 31 29 28 28 27 26 26 25 24 24 24 23 22 21 21 21 21 21 22 22 23 24 24 25 25 25 25 25 25 25 25 25 25 25 25 26 26 25 25 25 25 25 25 26 25 25 25 25 25 25
18 17 17 16 17 17 17 18 19 20 20 19 19 18 18 18 17 18 18 19 20 20 20 21 23 23 23 23 23 24 24 26 26 25 25 26 28 28 28 28 28 28 27 26 25 24 23 22 21 21 21 22 22 22 22 23 24 25 25 25 25 25 25 25 24 24 24 24 24 23 23 23 23 23 23 22 22 22 22 22 22 22 22 22 22 22 22
16 15 15 15 15 16 16 17 18 19 19 18 17 16 16 16 16 17 18 18 18 18 17 17 17 17 18 20 22 22 22 23 23 22 22 23 25 26 27 27 27 26 24 23 22 22 21 20 21 22 22 22 22 22 22 22 23 23 24 24 24 24 24 23 23 23 23 22 21 20 20 19 19 19 19 19 19 19 19 19 19 19 19 20 20 20 20
14 14 14 13 13 14 15 16 17 17 17 16 15 15 15 14 14 15 16 15 14 14 13 12 11 10 12 15 18 20 20 21 20 19 20 22 23 24 24 25 25 24 22 21 20 20 20 21 23 23 23 22 21 21 21 21 21 22 22 22 22 22 21 20 20 19 19 19 18 17 17 17 17 17 17 17 17 17 17 17 17 17 18 18 19 19 19
12 12 12 12 12 13 14 14 14 13 13 13 13 14 14 14 13 14 13 12 11 10 9 8 7 7 7 10 13 15 17 18 17 16 17 20 21 21 21 23 25 25 24 23 22 23 23 23 24 24 23 21 19 18 18 18 18 18 18 18 18 17 16 16 15 16 16 16 16 15 15 15 15 16 16 16 16 16 16 16 16 17 17 18 18 18 19
11 11 11 11 11 11 11 11 11 11 12 12 12 12 11 12 12 12 11 9 8 7 4 4 5 7 8 10 11 12 15 17 16 15 16 18 19 20 20 21 21 21 21 22 21 20 19 19 19 18 17 16 15 15 15 14 14 13 13 13 13 13 13 13 13 14 14 14 14 15 15 15 15 15 15 15 15 15 15 16 16 17 17 18 18 19 19
11 10 9 9 9 9 8 8 9 11 11 11 10 9 8 8 9 8 6 5 4 3 2 2 2 5 8 9 9 11 13 15 15 15 15 15 17 19 20 19 17 17 16 16 14 13 13 13 12 12 11 11 12 12 12 11 11 11 12 12 13 13 13 13 13 14 14 14 14 14 14 14 14 15 15 15 15 15 15 16 16 17 17 18 19 19 20
10 9 8 8 8 7 7 8 9 10 10 9 9 8 7 6 5 5 4 4 4 4 4 4 3 2 4 5 6 8 10 12 13 14 14 15 17 18 17 16 14 13 12 12 11 10 10 9 9 8 9 9 10 10 10 10 11 12 13 13 14 14 14 14 14 14 14 14 14 14 14 14 14 14 15 15 15 15 15 15 16 16 17 18 19 19 20
Wind_Direction
111 95 66 60 59 57 59 52 63 140 201 205 208 221 226 219 223 231 225 220 230 240 243 250 239 210 200 193 190 190 184 177 175 177 178 181 185 187 190 195 197 199 202 204 205 207 211 214 216 219 221 219 219 221 223 230 235 231 227 226 224 223 223 223 223 224 225 226 225 224 224 225 225 226 228 231 234 236 238 239 241 241 241 240 239 237 236
160 115 88 61 56 63 56 47 52 76 153 180 189 207 211 207 209 220 227 220 217 227 237 245 233 205 197 193 189 187 183 180 180 183 186 189 193 194 195 198 200 202 203 204 206 207 209 212 213 215 219 221 221 220 219 223 229 231 230 230 229 227 226 225 226 227 228 229 230 228 227 226 226 227 228 231 233 235 237 239 241 242 242 242 242 240 238
197 176 152 23 20 57 57 48 48 55 75 171 195 200 202 200 195 198 211 213 210 219 231 239 231 206 194 189 186 183 183 184 184 186 190 193 196 198 200 201 201 203 204 205 207 207 208 210 213 217 220 222 224 225 223 223 225 227 230 232 232 231 229 228 229 229 229 230 231 232 232 230 229 228 228 230 233 235 236 237 239 241 243 243 243 243 240
194 189 222 316 336 259 96 48 41 44 47 61 199 201 195 191 190 191 197 204 211 223 230 232 225 204 186 183 186 185 184 185 185 188 192 196 199 201 203 204 204 205 207 209 211 212 213 214 217 221 225 226 228 231 233 231 229 229 230 231 234 234 232 231 231 231 230 230 230 231 234 235 233 230 230 231 233 236 237 238 238 239 240 241 241 242 242
200 199 222 292 317 257 188 58 39 39 41 44 64 192 196 193 189 183 188 198 212 230 238 226 204 190 179 180 186 186 184 184 184 188 193 197 202 203 204 205 206 208 210 213 216 219 221 221 222 223 225 227 231 235 239 239 232 229 229 231 234 236 235 233 232 231 231 231 231 229 230 234 234 233 234 234 234 236 238 239 239 238 238 240 240 240 241
213 212 222 259 295 253 166 112 43 37 42 54 63 58 120 193 192 188 198 204 207 224 237 215 189 180 170 174 181 179 178 179 179 183 194 203 206 206 207 207 209 211 212 216 219 222 224 226 226 226 226 229 233 235 235 233 230 228 231 233 236 239 238 235 234 233 232 231 231 228 227 229 231 232 235 237 237 238 238 238 237 236 236 237 238 239 240
209 209 217 244 273 209 156 206 272 348 33 58 63 48 42 72 198 195 201 209 212 216 214 196 187 180 166 170 176 172 172 175 174 180 195 206 209 208 210 209 208 207 207 212 216 217 220 224 225 224 224 225 226 227 225 225 227 230 232 235 237 238 238 237 236 236 236 233 232 229 227 227 227 229 235 237 235 235 238 239 238 235 234 235 237 237 238
167 180 189 213 245 241 259 271 265 278 16 52 61 42 29 32 44 189 206 205 199 187 177 179 185 179 172 176 175 170 170 169 165 176 194 200 199 198 197 194 191 191 192 196 200 202 207 213 211 208 210 213 216 219 221 222 225 227 231 236 239 237 237 238 234 231 233 233 232 229 227 227 228 229 234 236 232 229 233 238 239 236 233 233 235 236 236
199 184 174 189 228 247 268 276 267 248 256 27 55 54 32 30 44 70 171 163 153 155 164 171 171 166 169 177 178 180 181 171 163 170 183 185 181 178 177 176 181 186 187 189 193 196 201 207 205 201 201 204 209 214 218 221 222 224 229 236 237 235 236 239 236 230 229 230 230 229 229 231 234 236 238 240 239 233 232 235 238 238 236 233 232 234 234
211 206 186 188 204 215 241 255 261 258 242 246 354 53 33 22 42 73 109 153 161 165 165 162 160 160 164 168 172 180 185 181 176 173 172 171 170 170 173 177 182 186 187 190 196 200 202 205 207 207 208 209 212 215 219 224 227 227 232 234 232 231 234 236 233 228 227 229 229 229 232 237 242 245 245 245 244 239 236 237 237 236 237 236 234 234 233
213 216 211 207 202 188 213 229 243 254 249 246 251 194 45 17 42 84 105 144 171 174 166 158 155 154 156 160 162 162 164 173 176 167 160 165 171 173 176 181 186 190 193 197 202 206 209 210 211 214 215 216 218 222 225 231 236 235 236 237 235 235 235 230 222 216 220 226 226 223 228 234 240 245 246 247 246 241 238 240 238 235 236 240 241 239 237
208 213 219 210 194 216 229 227 229 235 241 248 249 233 240 356 32 99 126 152 182 183 176 170 163 151 148 149 151 158 165 163 160 154 149 152 162 171 177 181 185 191 193 193 193 193 195 202 209 212 214 215 218 222 226 233 240 239 236 235 237 239 238 234 230 223 221 228 230 224 224 228 235 241 242 241 244 242 239 239 237 235 236 239 243 246 246
204 208 214 198 176 225 240 235 232 232 231 232 237 236 239 269 349 83 153 189 205 193 185 189 189 173 164 159 153 167 177 169 167 171 160 151 154 161 166 170 170 170 168 163 158 158 162 170 184 192 197 203 208 213 218 224 232 235 234 233 237 243 244 238 233 229 226 231 234 228 224 228 234 240 240 233 230 234 239 239 236 234 236 237 240 246 252
201 206 208 188 161 224 237 229 232 237 232 226 230 239 239 244 274 316 227 213 213 200 185 180 156 137 142 149 148 151 158 158 164 172 167 161 164 165 165 167 164 159 160 158 153 154 159 162 166 171 177 182 186 194 204 208 213 220 224 226 231 240 245 240 232 227 225 229 232 231 231 233 233 234 234 229 218 216 221 227 229 233 238 237 236 242 250
208 211 209 189 153 219 216 191 200 216 209 197 202 222 237 240 248 258 263 262 247 228 206 192 176 151 138 138 140 141 142 143 147 155 161 166 171 173 175 176 171 164 163 163 161 162 165 167 168 171 175 177 178 186 195 195 197 203 205 209 215 221 227 229 228 225 225 229 234 238 238 233 227 224 225 226 222 217 217 221 223 227 232 234 233 238 248
204 199 178 172 171 178 172 162 172 182 174 172 181 195 218 230 233 237 245 255 252 237 210 201 210 194 165 153 152 151 149 145 142 145 154 163 170 176 179 181 180 175 168 167 170 173 176 177 177 179 185 187 190 196 200 198 200 202 201 201 204 204 206 210 213 216 219 221 224 228 227 221 215 215 218 221 223 223 224 230 232 229 228 231 231 232 239
189 144 133 156 163 157 156 158 168 173 167 167 179 190 202 213 230 233 230 230 236 241 235 218 208 201 186 175 171 170 169 165 158 153 156 164 172 178 181 184 187 184 178 178 181 184 187 189 189 190 193 196 200 205 208 208 210 213 214 213 209 204 202 203 204 205 206 207 209 215 215 212 211 212 214 217 217 215 216 224 230 227 224 226 227 228 231
167 162 164 169 163 156 163 166 170 175 176 177 181 187 199 205 217 231 222 215 220 236 243 237 220 205 203 193 181 179 175 167 164 170 171 171 175 180 185 189 192 191 190 189 192 196 198 199 200 202 204 205 208 212 216 218 219 222 226 227 224 221 217 215 214 212 206 203 204 198 187 188 197 203 210 220 219 210 206 210 211 210 211 215 220 223 229
137 170 195 194 190 194 198 200 203 202 199 199 198 196 200 205 210 219 218 217 223 232 240 238 227 214 218 219 213 206 189 166 163 181 187 183 184 185 189 194 197 199 201 201 202 206 208 208 210 212 215 217 218 220 225 228 229 229 231 232 232 233 232 230 230 231 228 222 218 212 199 190 191 195 201 210 213 207 206 206 200 192 193 197 199 208 219
189 223 215 207 213 221 221 227 236 236 233 232 227 218 215 216 220 225 223 222 230 238 244 247 244 234 229 227 223 223 205 165 164 191 199 193 189 187 191 199 202 203 205 207 210 213 215 217 220 221 223 227 229 230 233 236 238 239 239 240 239 239 239 239 239 242 244 244 239 235 229 221 215 212 212 211 210 210 213 215 212 206 202 200 198 201 206
243 239 227 228 240 248 243 236 240 247 247 245 244 239 234 231 230 232 233 232 235 241 245 252 256 249 238 226 211 217 219 189 189 208 210 201 195 193 196 203 207 210 212 213 215 217 217 219 223 226 230 234 237 239 241 242 244 246 246 247 247 246 245 244 243 244 246 251 253 252 248 244 239 236 234 231 226 224 223 222 222 223 223 221 219 218 218
234 226 230 236 233 243 249 244 241 247 248 249 251 248 242 238 233 233 234 234 236 241 244 248 251 245 237 232 222 218 219 213 212 220 223 214 206 203 205 207 210 216 221 223 222 222 222 224 226 229 233 237 241 245 247 249 251 252 252 252 252 252 252 251 250 248 247 247 250 254 254 254 252 249 248 247 247 246 244 241 238 237 236 237 237 236 234
232 234 245 250 237 239 252 254 249 250 249 250 254 253 251 248 241 237 237 235 235 237 239 242 244 241 235 234 231 226 223 220 219 225 230 228 219 213 214 216 217 220 226 230 230 229 230 234 236 239 242 245 247 250 251 253 255 256 257 257 256 255 255 255 254 254 252 250 250 250 252 254 255 255 254 253 253 253 254 254 254 252 251 250 250 249 248
247 249 255 257 251 252 259 260 256 256 255 254 254 254 254 255 252 248 246 243 241 239 238 238 240 238 236 234 234 234 234 233 229 226 228 229 228 224 222 223 225 227 229 231 235 239 242 246 250 252 254 257 259 259 259 259 259 259 259 259 259 258 258 257 257 256 255 254 253 252 252 252 253 255 256 257 256 256 256 256 257 257 257 256 257 257 257
255 258 258 260 260 262 266 266 265 264 263 262 261 259 257 257 257 255 254 252 249 247 243 241 240 240 240 239 238 237 238 239 238 234 229 228 228 229 229 231 234 236 235 234 239 245 250 255 259 262 264 266 266 267 267 265 263 262 261 260 260 260 260 260 260 260 258 257 255 253 253 253 254 254 255 256 257 257 256 256 257 257 257 257 257 258 259
259 262 263 265 265 264 266 268 268 268 267 266 266 264 262 260 258 257 257 256 255 255 253 251 248 247 247 247 247 244 242 242 242 242 239 235 231 230 234 238 241 243 241 241 246 251 256 261 265 268 270 271 271 272 272 271 269 266 264 262 261 260 260 260 261 262 263 262 261 258 256 255 255 255 256 256 257 257 257 257 257 256 256 256 256 256 257
260 263 265 266 268 269 268 267 267 268 268 269 268 267 266 264 261 259 257 255 254 255 257 257 257 256 255 254 253 251 249 247 246 245 244 242 238 234 234 237 242 246 247 248 253 257 260 265 269 271 272 272 272 272 273 274 273 272 269 266 263 262 261 260 260 261 261 262 263 264 263 260 258 257 257 257 257 258 258 258 257 257 256 256 255 255 255
260 261 261 261 266 269 268 267 268 269 269 270 270 269 269 268 267 265 262 260 257 255 254 254 256 257 258 257 256 255 254 252 251 250 248 246 241 238 235 236 240 246 250 252 254 256 259 263 265 267 267 267 267 269 270 271 272 273 273 272 269 265 262 261 259 259 260 260 261 263 264 265 265 264 262 261 260 260 260 260 259 259 259 258 257 257 256
263 265 265 264 265 268 270 272 274 274 273 273 272 272 271 270 269 267 266 265 264 262 260 257 255 254 254 255 255 254 254 253 252 253 252 248 243 240 238 237 239 242 245 247 249 253 257 260 261 262 263 264 265 267 269 269 270 271 272 273 272 271 268 265 262 261 260 260 261 262 262 264 265 267 267 267 265 264 263 262 262 262 262 261 261 260 259
270 273 275 276 275 275 276 278 278 278 278 278 277 276 275 273 272 270 268 267 265 264 263 262 260 257 255 253 251 250 250 250 249 249 250 249 248 244 241 238 239 241 243 245 248 252 256 259 259 260 262 264 266 268 269 269 270 271 271 271 272 272 271 269 266 264 263 262 262 262 263 263 263 264 266 266 266 266 266 265 264 264 264 263 263 263 264
277 279 278 278 277 276 276 276 277 277 278 279 279 278 276 275 274 273 272 271 269 266 264 262 260 259 257 255 253 250 247 246 246 246 246 247 248 247 245 242 241 242 242 243 247 250 253 256 259 261 262 263 264 266 267 268 268 269 270 270 270 270 270 269 268 266 264 263 262 261 262 262 262 262 263 263 264 264 265 265 265 264 264 264 264 264 265
275 275 274 273 273 274 275 275 276 278 279 279 280 279 277 275 274 273 272 272 271 270 268 265 262 260 258 257 255 253 249 247 245 244 243 243 243 243 243 242 242 242 241 242 244 246 250 255 259 262 263 263 262 263 264 264 265 267 268 268 267 267 266 266 266 265 264 263 262 260 259 259 259 260 260 261 262 262 262 263 263 264 264 264 264 263 262
268 269 271 272 274 276 279 280 281 283 284 285 285 283 280 277 275 273 271 270 269 268 268 266 264 262 261 258 256 254 252 250 248 245 244 243 243 243 242 241 240 239 240 242 244 245 248 252 256 259 261 262 261 261 261 262 264 266 267 267 265 264 263 262 261 262 261 261 261 260 258 257 256 256 258 259 260 261 261 261 261 262 263 265 265 264 263
265 269 273 277 281 284 286 287 288 289 292 292 292 289 286 282 278 276 274 272 270 268 267 265 264 264 263 261 259 256 253 252 250 249 247 245 245 246 246 245 244 242 241 242 242 243 244 247 251 254 257 258 259 260 261 263 265 268 268 267 265 262 260 259 259 259 259 258 258 259 259 258 258 257 257 258 258 259 260 261 261 261 261 262 263 264 264
271 276 280 284 287 288 288 289 291 292 293 294 293 290 288 285 282 279 276 273 272 270 268 265 264 263 261 260 259 257 256 253 251 250 249 247 246 247 247 248 248 249 248 248 247 247 247 247 248 250 254 257 259 259 260 263 266 269 269 269 266 261 259 258 258 257 257 257 258 258 259 260 260 260 260 259 259 259 259 260 260 261 261 261 262 262 262
279 282 285 287 289 289 290 292 293 293 294 293 292 290 287 285 283 281 279 276 274 273 269 265 262 261 260 258 256 255 255 254 252 250 249 248 247 247 248 249 250 251 252 253 254 255 256 254 251 251 254 257 258 258 258 261 265 266 267 267 265 261 258 258 258 257 257 257 258 259 259 259 260 261 261 260 260 261 261 260 260 261 261 262 262 263 263
282 285 287 288 290 291 292 293 293 293 292 291 289 287 285 283 281 280 278 276 274 272 269 265 261 259 258 256 253 251 251 251 250 249 248 248 247 246 247 248 249 250 252 255 256 257 258 257 254 252 253 254 255 254 256 259 261 261 261 262 263 262 260 260 261 260 259 258 259 260 260 259 259 259 260 260 261 261 262 262 262 262 261 261 262 262 263
284 286 288 289 290 291 292 292 292 291 290 287 286 284 283 281 280 278 277 276 273 270 267 265 263 259 257 254 251 249 250 250 249 247 247 248 248 247 247 247 248 249 250 252 253 254 255 255 254 252 251 251 251 251 252 254 255 255 256 258 261 261 261 262 263 263 263 262 261 261 261 261 259 259 259 259 260 261 262 263 263 263 262 262 262 262 263
288 289 289 290 291 291 292 292 292 290 288 287 286 285 284 283 282 281 281 280 277 272 268 265 263 260 257 255 252 249 249 250 249 247 246 247 247 247 246 246 246 246 247 248 249 248 249 250 249 248 249 250 250 250 250 251 252 253 255 258 260 261 260 262 264 265 265 265 266 266 265 263 261 260 259 259 259 261 262 263 263 263 263 263 263 263 263
290 290 290 291 292 292 293 292 290 289 288 288 288 287 286 286 286 286 285 283 281 276 270 265 261 259 257 255 253 250 248 247 246 244 243 244 244 244 244 243 243 243 244 246 246 245 245 247 247 248 249 251 252 252 251 251 252 255 257 258 259 260 262 264 266 268 268 269 270 271 270 268 265 262 260 259 260 261 262 263 263 263 263 263 263 263 263
289 290 291 291 292 292 290 288 287 288 291 291 290 289 290 291 292 290 288 285 281 277 271 264 260 259 257 255 252 250 248 247 245 242 240 240 241 241 240 241 241 240 239 241 243 243 244 247 248 249 250 252 253 253 254 254 255 256 257 258 260 262 264 265 267 270 272 273 273 273 272 271 268 265 262 260 260 261 262 263 263 262 262 262 262 263 263
289 290 290 290 290 289 286 284 286 291 295 296 294 294 295 296 296 294 290 287 283 279 274 268 263 260 258 255 251 248 245 244 244 242 239 237 238 238 237 238 238 237 236 238 240 242 244 246 248 249 251 252 252 252 254 255 255 255 256 257 260 262 263 266 268 270 272 273 272 271 270 268 267 266 264 262 261 261 262 263 262 262 262 262 262 262 262
289 290 289 288 288 286 285 285 288 294 298 299 299 299 299 298 297 295 292 288 284 281 276 272 267 263 259 255 250 246 241 240 240 239 237 235 234 235 235 235 235 236 236 237 239 241 243 245 247 247 247 246 245 246 249 251 252 254 255 257 259 262 265 268 270 271 271 270 270 268 266 265 264 265 265 264 263 262 262 262 263 263 263 263 262 262 262
289 288 287 287 287 287 288 289 292 297 301 303 302 301 300 299 298 296 293 290 288 284 279 273 267 261 256 250 246 242 239 237 236 237 235 233 232 233 235 235 234 235 236 239 242 244 245 246 245 245 244 243 244 247 250 253 256 259 261 262 265 267 270 271 272 271 270 269 269 267 266 264 263 264 264 264 263 262 262 261 262 262 263 263 263 263 263
286 286 287 289 289 289 291 293 296 301 305 304 301 301 300 299 298 297 295 294 292 288 281 275 269 262 253 246 244 242 238 235 234 234 232 231 231 234 237 237 234 234 238 243 246 247 247 246 243 241 241 243 246 249 252 256 259 262 264 267 269 271 271 272 271 270 269 269 269 268 267 264 263 263 263 264 263 262 261 261 262 262 263 263 263 263 263
284 287 289 290 291 291 294 297 301 304 304 300 298 300 301 300 299 301 302 302 299 294 286 279 273 264 252 242 240 239 236 232 231 231 231 231 231 234 239 240 235 232 235 241 245 246 246 244 240 238 239 242 244 247 251 254 258 262 266 269 271 271 271 270 270 269 269 268 268 267 266 265 264 263 263 263 263 263 262 263 263 263 264 264 264 263 263
286 290 293 294 295 296 298 302 304 303 300 296 297 302 303 301 303 308 309 308 306 303 296 285 273 261 245 236 234 234 232 230 229 228 229 230 230 231 236 238 235 228 228 234 241 243 242 239 237 239 244 247 249 250 252 256 260 263 267 269 269 269 269 268 267 267 267 266 266 266 266 265 265 264 264 264 264 263 263 263 263 263 264 263 263 263 262
289 294 297 299 300 301 304 306 305 303 302 302 305 308 308 306 307 311 311 307 304 305 301 290 273 257 240 233 232 231 226 225 227 227 224 225 228 233 237 238 234 230 229 232 235 236 235 235 236 240 245 248 250 253 256 259 261 263 264 266 266 266 266 265 264 264 264 264 265 265 265 265 264 264 264 263 262 262 261 261 261 261 261 261 262 262 262
295 299 301 302 304 307 310 311 313 316 319 320 318 316 313 312 313 314 311 305 300 299 294 281 267 252 231 224 226 227 224 224 228 230 227 226 231 237 237 231 225 223 224 224 224 226 231 236 238 239 239 242 246 253 257 259 260 260 261 262 263 263 264 264 264 264 264 265 265 264 262 261 260 260 259 258 259 259 258 258 258 258 258 259 260 260 262
299 302 303 305 309 313 316 320 328 337 340 338 333 327 320 317 318 317 311 304 301 302 294 269 254 242 226 215 215 218 218 217 220 224 225 226 229 233 233 229 225 224 225 225 225 227 231 234 236 236 236 238 245 251 254 256 258 261 262 264 266 267 268 268 268 268 267 267 266 265 264 262 261 259 259 259 259 259 259 260 260 261 261 262 264 265 266
299 302 304 307 311 314 316 324 337 346 349 348 347 342 330 320 318 319 315 307 305 314 336 333 275 241 226 219 217 216 214 214 217 219 219 218 219 222 226 228 229 228 226 224 222 221 221 223 227 231 235 239 243 248 253 257 263 268 270 272 273 273 273 272 272 271 271 270 269 268 267 266 265 264 264 263 263 264 264 265 266 268 270 271 272 273 273
297 302 305 307 308 308 308 320 336 348 356 2 7 6 356 343 341 355 20 39 48 46 30 6 336 253 206 200 207 212 213 216 218 216 211 209 211 214 217 219 218 217 214 211 209 210 212 215 220 227 234 239 244 251 259 268 275 278 279 279 278 278 277 275 273 272 271 271 271 271 270 269 267 267 267 267 269 270 272 274 275 277 278 278 277 277 277
Height
3147 3147 3148 3148 3149 3148 3148 3148 3148 3149 3149 3150 3152 3152 3152 3153 3154 3155 3157 3158 3158 3158 3158 3157 3158 3159 3161 3162 3164 3166 3167 3169 3170 3172 3173 3175 3176 3178 3179 3181 3182 3183 3185 3186 3189 3191 3193 3194 3196 3197 3199 3200 3201 3203 3206 3207 3208 3210 3211 3212 3213 3215 3216 3217 3218 3220 3221 3222 3223 3224 3226 3228 3229 3231 3232 3233 3234 3235 3236 3237 3238 3240 3241 3242 3243 3244 3244
3147 3147 3148 3149 3149 3149 3148 3148 3148 3148 3149 3149 3150 3151 3151 3152 3154 3155 3156 3157 3157 3157 3157 3157 3157 3159 3161 3162 3164 3166 3168 3169 3170 3172 3173 3174 3175 3176 3178 3179 3181 3183 3184 3186 3188 3190 3191 3193 3194 3195 3196 3198 3199 3200 3202 3204 3205 3207 3208 3209 3210 3211 3213 3214 3215 3217 3218 3220 3221 3222 3224 3225 3226 3228 3229 3231 3232 3233 3234 3235 3236 3237 3239 3240 3241 3242 3243
3147 3147 3148 3149 3149 3149 3149 3149 3149 3149 3149 3149 3149 3149 3150 3152 3153 3154 3155 3155 3155 3155 3155 3156 3157 3158 3160 3162 3163 3165 3167 3169 3170 3171 3172 3173 3174 3175 3177 3178 3180 3182 3183 3185 3186 3188 3189 3190 3191 3192 3194 3195 3197 3199 3200 3201 3203 3205 3206 3206 3207 3208 3210 3211 3212 3213 3215 3217 3218 3220 3222 3223 3224 3225 3227 3228 3229 3231 3232 3233 3234 3235 3237 3238 3239 3240 3241
3145 3146 3147 3148 3149 3149 3149 3149 3149 3149 3149 3148 3148 3148 3149 3151 3152 3153 3154 3154 3153 3154 3154 3155 3156 3158 3160 3162 3163 3165 3166 3168 3169 3170 3171 3172 3173 3174 3176 3178 3179 3180 3182 3183 3184 3186 3187 3188 3189 3190 3191 3193 3194 3195 3196 3198 3201 3202 3202 3202 3203 3204 3206 3207 3208 3209 3211 3213 3214 3216 3219 3221 3222 3223 3224 3226 3227 3229 3230 3231 3232 3233 3234 3235 3236 3237 3239
3144 3145 3146 3148 3148 3147 3148 3149 3149 3149 3149 3149 3149 3149 3148 3149 3150 3152 3153 3153 3152 3153 3154 3154 3156 3158 3160 3162 3163 3164 3166 3167 3168 3170 3170 3171 3172 3174 3175 3177 3178 3179 3180 3181 3183 3184 3185 3186 3187 3188 3189 3190 3191 3192 3192 3194 3196 3197 3197 3198 3199 3200 3201 3202 3203 3205 3207 3209 3211 3213 3215 3217 3218 3220 3221 3223 3225 3226 3228 3229 3229 3230 3231 3233 3233 3235 3236
3144 3144 3146 3148 3148 3146 3147 3149 3150 3149 3150 3149 3150 3149 3149 3149 3149 3150 3150 3151 3151 3152 3153 3154 3156 3158 3160 3161 3162 3163 3165 3167 3168 3169 3169 3170 3171 3173 3175 3176 3176 3177 3178 3179 3180 3181 3182 3183 3185 3186 3187 3188 3189 3189 3190 3191 3192 3193 3193 3194 3195 3196 3197 3198 3199 3201 3203 3206 3208 3209 3210 3212 3214 3216 3218 3220 3222 3223 3225 3226 3226 3227 3229 3229 3230 3231 3233
3144 3144 3147 3150 3149 3146 3147 3149 3149 3150 3151 3150 3150 3150 3149 3149 3149 3149 3149 3149 3150 3152 3153 3154 3156 3158 3160 3160 3161 3162 3164 3165 3166 3167 3167 3168 3170 3171 3172 3173 3175 3176 3176 3177 3178 3179 3180 3181 3182 3183 3185 3185 3186 3187 3188 3189 3189 3190 3191 3191 3192 3193 3194 3195 3197 3199 3201 3203 3204 3205 3207 3208 3210 3212 3214 3216 3218 3220 3221 3222 3223 3224 3225 3226 3227 3228 3229
3144 3145 3147 3149 3148 3147 3148 3149 3149 3150 3151 3150 3150 3150 3150 3149 3148 3149 3148 3149 3150 3151 3153 3154 3156 3157 3159 3159 3160 3162 3163 3164 3165 3166 3166 3167 3169 3170 3171 3172 3173 3174 3175 3176 3176 3177 3178 3179 3181 3182 3183 3183 3184 3185 3186 3187 3188 3188 3189 3189 3190 3191 3192 3193 3194 3196 3197 3199 3200 3201 3203 3204 3206 3208 3210 3211 3213 3216 3218 3219 3220 3221 3221 3222 3223 3224 3226
3144 3144 3146 3148 3148 3148 3148 3148 3148 3150 3151 3151 3151 3151 3150 3149 3149 3149 3149 3149 3150 3152 3153 3154 3155 3157 3158 3159 3160 3161 3162 3162 3163 3163 3164 3166 3167 3169 3170 3171 3172 3173 3174 3175 3176 3177 3177 3178 3179 3181 3181 3182 3183 3184 3184 3185 3186 3187 3187 3188 3188 3190 3190 3190 3192 3194 3195 3197 3198 3199 3200 3201 3203 3204 3207 3208 3210 3212 3214 3216 3217 3218 3218 3218 3218 3220 3222
3144 3145 3145 3147 3148 3148 3148 3148 3148 3149 3150 3151 3152 3152 3151 3150 3150 3150 3150 3150 3151 3152 3153 3154 3156 3157 3159 3160 3160 3161 3161 3162 3161 3161 3163 3165 3167 3168 3170 3171 3172 3173 3174 3175 3175 3176 3177 3178 3179 3179 3180 3181 3182 3183 3183 3184 3185 3185 3186 3187 3187 3188 3188 3189 3191 3192 3193 3194 3195 3196 3197 3198 3200 3202 3203 3205 3206 3208 3210 3212 3213 3214 3214 3213 3213 3215 3216
3144 3145 3145 3145 3147 3147 3148 3148 3149 3149 3149 3150 3151 3152 3152 3152 3152 3152 3151 3151 3152 3152 3153 3154 3156 3158 3159 3160 3160 3161 3162 3162 3163 3163 3163 3164 3166 3168 3169 3170 3172 3173 3173 3174 3175 3175 3176 3177 3178 3178 3179 3180 3181 3182 3182 3183 3183 3184 3185 3185 3186 3186 3187 3188 3190 3191 3191 3191 3192 3193 3194 3195 3196 3198 3200 3201 3202 3204 3205 3207 3208 3210 3211 3211 3211 3212 3213
3144 3144 3145 3145 3147 3147 3147 3148 3149 3149 3149 3150 3151 3152 3152 3153 3153 3153 3153 3153 3152 3152 3153 3154 3155 3157 3158 3159 3160 3162 3162 3162 3163 3163 3163 3164 3166 3167 3169 3170 3171 3172 3172 3173 3174 3174 3175 3175 3176 3177 3178 3179 3180 3180 3181 3182 3182 3183 3183 3184 3184 3184 3185 3187 3188 3189 3189 3190 3191 3191 3192 3193 3193 3194 3196 3197 3198 3199 3200 3201 3202 3204 3207 3208 3209 3211 3213
3143 3144 3145 3146 3147 3147 3147 3148 3149 3149 3150 3151 3151 3152 3152 3153 3153 3154 3154 3154 3153 3153 3154 3156 3157 3156 3157 3159 3160 3162 3162 3163 3163 3163 3163 3164 3166 3167 3168 3169 3170 3171 3172 3173 3173 3174 3174 3175 3176 3176 3177 3178 3179 3179 3180 3180 3181 3181 3182 3182 3182 3183 3184 3185 3186 3187 3188 3188 3189 3189 3190 3191 3191 3192 3193 3195 3195 3196 3197 3198 3198 3200 3203 3205 3207 3209 3212
3143 3143 3144 3146 3147 3147 3148 3148 3149 3149 3151 3151 3152 3152 3152 3153 3153 3154 3154 3154 3154 3154 3155 3156 3157 3157 3158 3159 3161 3162 3164 3164 3164 3163 3164 3165 3166 3167 3168 3169 3170 3171 3172 3172 3173 3173 3174 3175 3175 3176 3176 3177 3178 3178 3179 3179 3180 3180 3181 3181 3181 3182 3182 3183 3184 3186 3187 3187 3188 3188 3188 3189 3189 3190 3191 3192 3193 3194 3194 3195 3195 3197 3200 3202 3205 3207 3210
3143 3144 3144 3145 3147 3147 3148 3149 3149 3150 3150 3151 3152 3152 3153 3153 3153 3154 3154 3154 3154 3154 3154 3156 3158 3159 3160 3160 3162 3164 3165 3165 3164 3164 3164 3166 3167 3168 3168 3169 3170 3170 3171 3172 3173 3173 3174 3174 3175 3175 3176 3177 3177 3178 3179 3179 3179 3180 3180 3181 3181 3181 3182 3182 3183 3184 3185 3186 3187 3187 3187 3188 3188 3188 3189 3190 3191 3192 3192 3191 3192 3194 3196 3199 3202 3204 3206
3143 3144 3144 3146 3147 3148 3148 3149 3149 3150 3150 3151 3152 3152 3152 3153 3153 3154 3154 3154 3153 3153 3154 3156 3158 3159 3161 3161 3162 3164 3165 3166 3165 3165 3165 3166 3167 3168 3168 3169 3170 3170 3171 3171 3172 3173 3173 3174 3174 3175 3176 3176 3177 3178 3178 3179 3179 3179 3180 3180 3181 3181 3182 3182 3183 3183 3184 3185 3185 3186 3186 3187 3187 3187 3188 3189 3190 3190 3190 3191 3191 3192 3193 3196 3198 3200 3202
3144 3144 3145 3146 3147 3148 3148 3149 3149 3149 3150 3150 3151 3152 3152 3152 3153 3153 3154 3153 3153 3153 3154 3155 3157 3158 3160 3161 3162 3163 3164 3165 3165 3165 3165 3166 3167 3167 3168 3169 3170 3170 3170 3171 3171 3172 3173 3173 3174 3174 3175 3176 3176 3177 3177 3178 3178 3179 3179 3180 3180 3181 3181 3182 3182 3183 3184 3184 3185 3185 3186 3186 3186 3186 3187 3188 3188 3189 3189 3190 3190 3191 3191 3193 3194 3196 3198
3145 3146 3146 3147 3147 3148 3148 3148 3149 3149 3149 3150 3150 3151 3152 3152 3152 3153 3153 3153 3152 3152 3153 3155 3157 3158 3159 3160 3161 3162 3163 3163 3164 3165 3165 3166 3166 3167 3168 3169 3169 3170 3170 3170 3171 3171 3172 3173 3173 3174 3175 3175 3175 3176 3176 3177 3177 3178 3178 3179 3179 3180 3180 3181 3182 3183 3183 3184 3184 3185 3185 3185 3186 3186 3186 3187 3187 3188 3188 3188 3189 3190 3190 3191 3192 3193 3195
3146 3146 3146 3147 3147 3148 3148 3148 3149 3149 3149 3150 3150 3151 3151 3152 3152 3152 3153 3153 3153 3152 3152 3153 3155 3157 3159 3159 3160 3161 3161 3161 3162 3164 3164 3165 3166 3167 3167 3168 3169 3169 3169 3170 3170 3171 3171 3172 3172 3173 3174 3174 3175 3175 3175 3175 3176 3176 3177 3177 3178 3178 3179 3180 3181 3181 3182 3183 3183 3184 3185 3185 3186 3186 3186 3187 3187 3187 3188 3188 3188 3189 3190 3191 3191 3192 3193
3146 3146 3146 3146 3146 3147 3147 3148 3148 3148 3149 3149 3150 3150 3151 3151 3152 3152 3152 3153 3153 3153 3152 3152 3152 3153 3156 3156 3158 3160 3160 3160 3161 3163 3163 3163 3164 3165 3166 3167 3168 3168 3168 3169 3169 3169 3170 3171 3171 3172 3172 3173 3174 3174 3174 3174 3174 3175 3175 3175 3176 3177 3178 3178 3179 3180 3180 3181 3182 3183 3183 3184 3185 3185 3186 3187 3187 3187 3188 3188 3188 3189 3190 3190 3191 3191 3192
3145 3145 3145 3145 3146 3146 3146 3147 3147 3147 3148 3148 3149 3150 3150 3151 3151 3151 3152 3152 3152 3152 3153 3152 3151 3151 3152 3153 3155 3157 3158 3158 3160 3161 3162 3162 3163 3164 3164 3166 3167 3167 3167 3168 3168 3168 3169 3169 3170 3170 3171 3171 3172 3172 3173 3173 3173 3173 3174 3174 3174 3175 3176 3176 3177 3178 3179 3179 3180 3180 3181 3182 3183 3184 3184 3185 3186 3186 3187 3187 3187 3188 3189 3189 3189 3190 3191
3145 3144 3144 3144 3145 3145 3145 3145 3146 3147 3147 3148 3148 3149 3149 3150 3150 3151 3151 3151 3151 3151 3152 3152 3152 3152 3152 3152 3153 3155 3156 3157 3159 3160 3160 3161 3162 3162 3163 3164 3164 3165 3166 3166 3166 3167 3167 3168 3168 3169 3169 3170 3170 3170 3171 3171 3171 3172 3172 3172 3173 3173 3174 3174 3175 3176 3176 3177 3177 3178 3179 3179 3180 3181 3182 3183 3183 3184 3185 3185 3186 3186 3187 3187 3187 3188 3189
3142 3142 3142 3143 3144 3144 3143 3144 3145 3145 3146 3147 3147 3147 3148 3148 3149 3149 3150 3150 3150 3151 3151 3151 3151 3152 3152 3152 3153 3154 3155 3156 3157 3158 3158 3159 3159 3160 3161 3162 3162 3163 3164 3164 3164 3165 3166 3166 3167 3167 3167 3168 3168 3169 3169 3169 3169 3170 3170 3170 3171 3171 3172 3172 3172 3173 3174 3174 3175 3176 3176 3177 3177 3178 3179 3180 3181 3181 3182 3182 3183 3184 3184 3185 3185 3186 3186
3139 3140 3140 3141 3142 3142 3142 3143 3143 3144 3144 3145 3146 3146 3147 3147 3147 3148 3148 3149 3149 3149 3149 3150 3150 3150 3151 3152 3152 3153 3153 3154 3154 3155 3155 3156 3157 3158 3159 3159 3160 3160 3161 3162 3162 3163 3163 3164 3164 3164 3165 3165 3166 3166 3167 3167 3167 3167 3168 3168 3168 3169 3169 3169 3170 3170 3171 3172 3172 3173 3173 3174 3174 3175 3176 3177 3177 3178 3179 3179 3180 3180 3181 3182 3182 3183 3183
3137 3138 3138 3139 3140 3140 3140 3141 3141 3142 3142 3143 3143 3144 3145 3145 3146 3146 3146 3147 3147 3147 3148 3148 3148 3149 3149 3150 3150 3151 3151 3152 3152 3152 3152 3153 3154 3155 3156 3156 3157 3158 3158 3159 3159 3160 3160 3161 3161 3161 3162 3162 3163 3164 3164 3164 3165 3165 3165 3165 3166 3166 3166 3166 3167 3167 3168 3168 3169 3170 3170 3171 3171 3172 3172 3173 3174 3175 3176 3176 3177 3177 3178 3178 3179 3179 3180
3135 3136 3136 3137 3138 3138 3138 3139 3139 3139 3140 3140 3140 3141 3142 3142 3143 3144 3144 3144 3145 3145 3145 3145 3146 3146 3147 3148 3148 3149 3149 3149 3150 3150 3151 3151 3152 3152 3153 3154 3155 3155 3155 3156 3156 3157 3157 3158 3158 3158 3159 3160 3160 3161 3161 3161 3161 3162 3162 3162 3163 3163 3163 3164 3164 3164 3165 3165 3166 3166 3167 3167 3168 3168 3169 3169 3170 3171 3172 3172 3173 3174 3174 3175 3175 3176 3176
3133 3134 3134 3135 3135 3136 3136 3136 3136 3137 3137 3137 3137 3138 3138 3139 3139 3140 3141 3141 3142 3142 3142 3142 3142 3143 3144 3145 3145 3146 3147 3147 3148 3148 3149 3149 3150 3150 3151 3151 3151 3152 3152 3152 3153 3154 3154 3155 3155 3156 3156 3157 3157 3158 3158 3158 3158 3159 3159 3159 3160 3160 3160 3161 3161 3161 3162 3162 3162 3163 3163 3164 3164 3165 3165 3166 3166 3167 3168 3168 3169 3169 3170 3171 3171 3172 3172
3131 3132 3133 3133 3133 3133 3134 3134 3134 3134 3134 3135 3135 3135 3135 3136 3136 3136 3137 3137 3138 3138 3139 3139 3139 3139 3140 3141 3142 3143 3143 3144 3145 3146 3146 3147 3148 3147 3148 3148 3148 3148 3149 3149 3150 3151 3151 3152 3153 3153 3153 3154 3154 3155 3155 3156 3156 3156 3156 3156 3156 3157 3157 3157 3158 3158 3159 3159 3159 3159 3160 3160 3160 3161 3161 3162 3162 3163 3163 3164 3164 3165 3165 3166 3167 3167 3168
3129 3130 3130 3131 3131 3131 3131 3131 3131 3131 3131 3132 3132 3132 3132 3132 3133 3133 3133 3133 3134 3134 3135 3135 3136 3136 3136 3137 3137 3138 3139 3140 3141 3142 3143 3144 3144 3144 3144 3145 3145 3145 3145 3146 3147 3148 3149 3149 3149 3150 3150 3151 3151 3152 3152 3153 3153 3153 3153 3154 3154 3154 3154 3154 3154 3155 3155 3156 3156 3156 3156 3157 3157 3157 3158 3158 3158 3159 3159 3160 3160 3160 3161 3161 3162 3162 3163
3127 3128 3128 3128 3128 3129 3128 3129 3129 3128 3128 3129 3129 3129 3129 3129 3129 3129 3129 3129 3130 3130 3130 3131 3132 3132 3132 3133 3133 3134 3135 3136 3137 3138 3139 3139 3140 3140 3141 3141 3141 3141 3142 3143 3144 3145 3145 3145 3146 3146 3147 3147 3148 3148 3149 3149 3150 3150 3150 3151 3151 3151 3151 3151 3152 3152 3152 3152 3152 3153 3153 3153 3154 3154 3154 3155 3155 3155 3155 3156 3156 3156 3157 3157 3158 3158 3158
3125 3125 3126 3126 3126 3126 3126 3126 3126 3126 3126 3126 3126 3126 3126 3126 3126 3125 3125 3125 3126 3126 3126 3126 3127 3127 3128 3128 3129 3130 3131 3131 3132 3133 3134 3135 3136 3136 3137 3137 3138 3138 3139 3140 3141 3141 3141 3141 3142 3142 3143 3144 3145 3145 3145 3146 3146 3146 3147 3148 3148 3148 3148 3149 3149 3149 3149 3149 3149 3150 3150 3150 3150 3151 3151 3151 3151 3152 3152 3152 3152 3153 3153 3153 3154 3154 3155
3123 3123 3123 3123 3123 3123 3123 3123 3123 3123 3123 3123 3122 3122 3122 3122 3122 3121 3121 3121 3121 3122 3122 3122 3122 3122 3123 3123 3124 3125 3126 3126 3127 3128 3129 3130 3131 3132 3133 3133 3133 3134 3135 3136 3136 3137 3137 3137 3137 3138 3139 3140 3141 3141 3142 3142 3142 3143 3143 3143 3144 3145 3145 3145 3146 3146 3146 3146 3146 3146 3147 3147 3147 3147 3147 3148 3148 3148 3148 3148 3148 3149 3149 3149 3150 3151 3152
3121 3121 3121 3121 3121 3121 3121 3121 3120 3120 3119 3119 3119 3118 3118 3117 3117 3117 3117 3117 3117 3117 3117 3117 3117 3118 3118 3118 3119 3119 3120 3121 3122 3123 3124 3125 3125 3126 3127 3128 3129 3129 3130 3131 3132 3133 3133 3133 3133 3134 3135 3135 3136 3137 3138 3138 3139 3139 3139 3139 3140 3140 3141 3142 3142 3142 3142 3142 3143 3143 3143 3143 3144 3144 3144 3144 3144 3144 3144 3145 3145 3145 3145 3145 3145 3147 3148
3118 3118 3118 3118 3118 3118 3118 3117 3117 3116 3115 3115 3114 3113 3113 3112 3112 3112 3112 3112 3112 3112 3112 3112 3112 3113 3113 3113 3114 3114 3115 3116 3116 3117 3118 3119 3120 3121 3122 3123 3123 3124 3124 3125 3126 3127 3128 3128 3128 3129 3130 3131 3132 3133 3134 3135 3135 3135 3135 3135 3136 3136 3137 3137 3137 3138 3138 3138 3138 3139 3139 3139 3140 3140 3140 3140 3140 3140 3141 3141 3141 3141 3142 3141 3142 3143 3144
3116 3116 3116 3115 3115 3115 3114 3113 3113 3112 3111 3110 3109 3108 3108 3107 3107 3107 3107 3107 3107 3107 3107 3108 3108 3108 3108 3108 3109 3109 3110 3110 3111 3112 3112 3113 3114 3115 3116 3117 3118 3118 3119 3120 3121 3122 3123 3123 3124 3125 3126 3126 3128 3129 3130 3130 3131 3131 3131 3132 3132 3132 3132 3133 3133 3133 3133 3133 3134 3134 3135 3135 3135 3136 3136 3136 3136 3136 3137 3137 3137 3137 3138 3138 3138 3139 3139
3113 3113 3113 3112 3111 3111 3110 3109 3108 3107 3106 3105 3105 3104 3103 3103 3102 3102 3101 3101 3102 3102 3102 3103 3103 3103 3103 3103 3104 3104 3105 3105 3106 3106 3107 3108 3108 3109 3110 3111 3112 3113 3113 3114 3116 3117 3118 3119 3120 3121 3122 3122 3123 3124 3125 3126 3126 3127 3127 3127 3127 3128 3128 3128 3128 3128 3128 3128 3129 3129 3130 3131 3131 3131 3131 3132 3132 3132 3132 3132 3133 3133 3133 3134 3134 3134 3135
3110 3110 3109 3108 3108 3107 3106 3105 3104 3103 3102 3101 3100 3100 3099 3098 3098 3097 3096 3096 3096 3096 3096 3097 3097 3097 3097 3098 3098 3099 3099 3100 3100 3101 3101 3102 3103 3104 3105 3106 3107 3108 3108 3109 3110 3112 3112 3114 3115 3116 3117 3117 3118 3119 3120 3121 3121 3122 3123 3123 3123 3123 3123 3123 3123 3123 3123 3124 3124 3125 3125 3126 3126 3126 3126 3127 3127 3127 3127 3127 3128 3128 3128 3129 3129 3129 3130
3107 3106 3105 3104 3104 3103 3102 3101 3100 3099 3098 3097 3096 3095 3095 3094 3093 3092 3091 3090 3090 3090 3090 3090 3091 3091 3091 3092 3092 3093 3093 3094 3095 3096 3096 3097 3098 3099 3100 3101 3102 3103 3103 3104 3105 3106 3107 3108 3110 3111 3112 3112 3113 3114 3115 3116 3116 3117 3118 3118 3118 3118 3118 3118 3118 3118 3118 3119 3120 3120 3120 3121 3121 3121 3121 3122 3122 3122 3123 3123 3123 3123 3123 3123 3124 3124 3124
3103 3102 3101 3100 3099 3098 3098 3097 3096 3095 3093 3093 3092 3091 3090 3089 3088 3087 3086 3085 3085 3084 3084 3084 3084 3085 3085 3085 3086 3087 3087 3088 3089 3090 3091 3092 3093 3094 3095 3096 3097 3098 3099 3099 3100 3101 3102 3103 3105 3106 3106 3107 3108 3109 3110 3111 3112 3112 3113 3113 3113 3114 3114 3113 3113 3114 3114 3114 3115 3115 3115 3115 3116 3116 3116 3116 3117 3117 3117 3118 3118 3118 3118 3118 3118 3119 3119
3099 3098 3097 3096 3095 3094 3093 3093 3092 3091 3090 3088 3087 3087 3086 3084 3083 3082 3081 3081 3080 3080 3079 3079 3078 3078 3078 3079 3080 3081 3082 3082 3083 3084 3085 3086 3087 3089 3090 3091 3092 3094 3095 3095 3096 3097 3098 3099 3100 3101 3102 3102 3103 3104 3105 3107 3107 3108 3108 3109 3109 3109 3109 3109 3109 3109 3109 3109 3110 3110 3110 3110 3110 3110 3111 3111 3111 3112 3112 3112 3112 3112 3112 3112 3113 3113 3113
3095 3094 3093 3092 3091 3090 3090 3089 3088 3087 3086 3085 3083 3082 3081 3080 3079 3078 3077 3076 3075 3074 3074 3074 3073 3072 3073 3073 3074 3075 3076 3076 3077 3078 3080 3081 3083 3084 3085 3086 3088 3090 3091 3091 3091 3093 3094 3095 3096 3097 3098 3098 3099 3099 3101 3102 3103 3103 3104 3104 3104 3105 3105 3105 3105 3105 3104 3104 3104 3104 3105 3105 3105 3105 3105 3105 3106 3106 3106 3107 3107 3107 3107 3107 3107 3107 3108
3092 3091 3090 3089 3088 3087 3086 3085 3085 3084 3083 3081 3080 3078 3077 3076 3075 3073 3072 3071 3070 3069 3069 3068 3067 3067 3067 3068 3069 3070 3070 3071 3072 3073 3074 3076 3078 3080 3081 3082 3083 3085 3087 3087 3088 3089 3090 3091 3092 3093 3093 3094 3095 3096 3096 3097 3098 3098 3099 3100 3100 3100 3100 3100 3100 3100 3100 3099 3099 3099 3099 3099 3099 3100 3100 3100 3100 3101 3101 3101 3101 3101 3101 3102 3102 3102 3102
3089 3088 3087 3086 3085 3084 3083 3082 3081 3080 3079 3077 3076 3074 3073 3072 3071 3069 3068 3067 3066 3065 3064 3064 3063 3062 3063 3063 3064 3064 3065 3066 3067 3068 3069 3071 3073 3075 3076 3077 3078 3080 3082 3083 3084 3085 3086 3087 3088 3088 3089 3090 3091 3092 3092 3093 3093 3094 3095 3095 3096 3096 3096 3095 3095 3095 3095 3095 3094 3094 3094 3094 3095 3095 3095 3095 3095 3095 3096 3096 3096 3096 3096 3096 3096 3096 3097
3085 3085 3084 3083 3082 3081 3080 3079 3078 3077 3075 3074 3072 3071 3069 3068 3067 3065 3064 3063 3062 3060 3059 3059 3058 3057 3058 3058 3058 3059 3060 3061 3063 3064 3065 3067 3069 3070 3071 3072 3074 3076 3078 3079 3080 3081 3082 3083 3084 3084 3085 3086 3087 3088 3089 3089 3090 3090 3091 3091 3092 3092 3092 3091 3091 3091 3091 3091 3090 3090 3090 3090 3090 3090 3090 3090 3090 3090 3090 3091 3091 3091 3091 3091 3091 3091 3092
3083 3082 3081 3080 3079 3078 3077 3076 3075 3073 3072 3070 3069 3068 3066 3065 3063 3062 3060 3059 3058 3056 3055 3054 3053 3052 3053 3053 3054 3055 3056 3057 3059 3060 3061 3063 3065 3066 3067 3069 3071 3073 3074 3075 3076 3077 3078 3079 3080 3081 3083 3084 3085 3085 3085 3086 3086 3086 3087 3087 3087 3087 3087 3087 3087 3087 3087 3086 3086 3086 3086 3086 3086 3086 3086 3086 3086 3086 3086 3086 3086 3086 3086 3086 3086 3086 3087
3080 3079 3079 3078 3076 3075 3074 3073 3071 3070 3069 3067 3066 3065 3063 3062 3060 3059 3057 3056 3054 3052 3051 3049 3048 3047 3048 3049 3050 3051 3052 3054 3056 3057 3059 3060 3062 3063 3065 3066 3067 3068 3069 3071 3072 3073 3074 3075 3077 3078 3079 3080 3081 3081 3082 3082 3082 3082 3083 3083 3083 3083 3083 3083 3083 3083 3083 3082 3082 3082 3082 3082 3082 3082 3082 3082 3081 3081 3081 3081 3081 3082 3082 3082 3082 3082 3082
3078 3077 3076 3075 3074 3073 3071 3070 3069 3067 3066 3065 3063 3062 3061 3059 3058 3056 3054 3053 3051 3049 3048 3046 3044 3043 3044 3046 3047 3048 3049 3051 3053 3055 3057 3058 3059 3060 3061 3062 3063 3064 3066 3067 3068 3069 3070 3072 3073 3074 3076 3076 3077 3077 3078 3078 3079 3079 3079 3079 3079 3079 3079 3079 3079 3079 3079 3079 3078 3078 3078 3078 3078 3078 3078 3078 3078 3078 3078 3077 3078 3078 3078 3078 3078 3078 3079
3075 3074 3074 3073 3071 3070 3069 3068 3067 3065 3063 3062 3061 3059 3058 3057 3055 3054 3052 3051 3049 3048 3046 3044 3042 3042 3043 3044 3045 3047 3048 3050 3051 3053 3054 3056 3057 3058 3059 3060 3061 3062 3063 3064 3065 3066 3067 3069 3070 3071 3072 3073 3073 3074 3075 3075 3075 3075 3075 3075 3075 3075 3075 3075 3075 3075 3075 3075 3075 3075 3075 3075 3074 3074 3074 3074 3074 3074 3074 3074 3074 3074 3075 3075 3075 3075 3075
3073 3072 3071 3070 3069 3068 3067 3066 3065 3063 3061 3060 3058 3056 3055 3054 3053 3052 3050 3049 3048 3047 3045 3044 3042 3042 3043 3044 3045 3046 3048 3049 3050 3051 3053 3054 3055 3057 3057 3058 3059 3059 3060 3061 3062 3063 3065 3066 3067 3068 3069 3070 3071 3071 3072 3072 3072 3072 3072 3072 3072 3072 3072 3072 3072 3072 3072 3072 3072 3072 3072 3072 3072 3072 3072 3072 3072 3071 3071 3071 3071 3072 3072 3072 3072 3072 3072
3071 3070 3069 3068 3067 3066 3066 3065 3063 3062 3060 3058 3056 3055 3053 3052 3051 3050 3049 3048 3047 3046 3045 3044 3043 3043 3043 3044 3045 3046 3047 3048 3050 3050 3051 3052 3054 3055 3056 3056 3057 3059 3059 3060 3061 3061 3063 3064 3064 3065 3067 3068 3068 3069 3069 3069 3069 3069 3069 3069 3069 3070 3070 3070 3070 3069 3069 3069 3069 3069 3069 3069 3069 3069 3069 3069 3069 3069 3068 3068 3068 3068 3068 3068 3068 3068 3068
3069 3068 3067 3067 3066 3065 3064 3063 3062 3061 3059 3057 3056 3054 3052 3051 3050 3049 3048 3047 3046 3046 3045 3044 3044 3043 3044 3044 3045 3046 3047 3048 3049 3050 3050 3051 3053 3053 3054 3055 3056 3057 3058 3058 3059 3060 3061 3062 3063 3063 3064 3065 3066 3066 3066 3067 3067 3067 3067 3067 3067 3067 3067 3067 3067 3067 3067 3066 3066 3066 3066 3066 3066 3066 3066 3066 3066 3065 3065 3065 3065 3065 3064 3064 3064 3064 3064
3067 3066 3066 3065 3065 3064 3063 3062 3061 3060 3059 3057 3056 3054 3053 3051 3050 3049 3048 3047 3046 3045 3045 3045 3044 3044 3044 3045 3045 3046 3047 3047 3048 3049 3050 3050 3051 3052 3053 3054 3055 3055 3056 3057 3058 3059 3060 3061 3061 3062 3063 3064 3064 3064 3064 3064 3064 3064 3064 3064 3064 3064 3064 3064 3064 3064 3064 3063 3063 3063 3063 3063 3063 3063 3063 3063 3062 3062 3062 3061 3061 3061 3060 3060 3060 3060 3060